Regional Weather Roundup
Issued by NWS Pendleton, OR

Home | Current Version | Previous Version | Text Only | Print | Product List | Glossary On
Versions: 1 2 3 4 5 6 7 8 9 10 11 12 13 14 15 16 17 18 19 20 21 22 23 24 25 26 27 28 29 30 31 32 33 34 35 36 37 38 39 40 41 42 43 44 45 46 47 48 49 50
000
ASUS46 KPDT 010425
RWRPDT
PENDLETON REGIONAL WEATHER ROUNDUP
NATIONAL WEATHER SERVICE PENDLETON OREGON
800 PM PST SAT FEB 28 2015

NOTE: FAIR INDICATES FEW OR NO CLOUDS BELOW 12,000 FEET WITH NO
SIGNIFICANT WEATHER AND/OR OBSTRUCTIONS TO VISIBILITY.

# INDICATES UNOFFICIAL STATION AND DATA

WAZ520-010510-
EAST SLOPES OF WASHINGTON CASCADES

CITY            SKY/WX      TMP DP  RH  WIND    PRES   REMARKS
#BUMPING DAM    N/A         28  N/A N/A N2      N/A
#CLE ELUM HS    N/A         32  21  63  CALM    30.12R
#CLE ELUM LAKE  N/A         35  16  45  CALM    30.21R
#CLIFFDEL 2NW   N/A         31  22  69  CALM    N/A
#GLENWOOD       N/A         27  23  85  CALM    30.22R
#MANASTASH CYN  N/A         32  29  89  CALM    30.14R
#NELSON         N/A         29  23  78  CALM    30.25R
#NELSON 3SW     N/A         28  25  88  CALM    30.45R
#NILE           N/A         28  26  92  CALM    29.49R
#RONALD 2NW     N/A         34  21  58  N1      30.03R
#SNOWDEN        N/A         29   8  40  CALM    N/A
#TEANAWAY 4NE   N/A         32  21  63  E1      N/A
#TROUT LAKE 1NE N/A         33  25  72  N2      30.21R
$$

WAZ521-010510-
SIMCOE HIGHLANDS

CITY            SKY/WX      TMP DP  RH  WIND    PRES   REMARKS
#BICKLETON HS   N/A         29  10  44  N3      N/A
#CENTERVILLE 4W N/A         38  24  57  CALM    29.92R
#CENTERVILLE 1SWN/A         34  23  64  CALM    30.20R
#GOLDENDALE     N/A         37  20  50  E1      N/A
#GOLDENDALE 1NE N/A         33  12  41  NW6     N/A
#GOLDENDALE 5WNWN/A         33  22  63  CALM    30.20R
#GOODNOE HILLS  N/A         40  15  36  N3      N/A
#LYLE 6NE       N/A         41  22  46  CALM    30.18R
$$

WAZ026-010510-
KITTITAS VALLEY

CITY            SKY/WX      TMP DP  RH  WIND    PRES   REMARKS
ELLENSBURG AP   CLEAR       30  21  69  CALM    30.17R
#ELLENSBURG CWU N/A         36  21  54  CALM    30.15R
#ELLENSBURG 3NE N/A         28  20  71  NE5     30.16R
#ELLENSBURG 1E  N/A         33  13  43  CALM    N/A
#KITTITAS 4N    N/A         33  18  53  W3      28.49R
#KITTITAS 3S    N/A         26  19  74  CALM    30.19R
#THORP 6N       N/A         37  19  48  N1      30.23R
$$

WAZ027-010510-
YAKIMA VALLEY

CITY            SKY/WX      TMP DP  RH  WIND    PRES   REMARKS
SUNNYSIDE AP    CLEAR       33  18  53  CALM    30.21R
YAKIMA AIRPORT  CLEAR       36  23  59  W8      30.20R
YAKIMA-VAGABOND CLEAR       34  19  54  E3      30.19R
#DONALD 2NE     N/A         38   5  25  CALM    29.05R
#MABTON         N/A         36  22  56  S3      30.20R
#NACHES 2SW     N/A         35  27  72  W2      30.17R
#OUTLOOK DOT    N/A         N/A N/A N/A E2      N/A
#SELAH 8E       N/A         31  14  49  CALM    N/A
#TERRACE HTS    N/A         35  17  47  CALM    30.18R
#TOPPENISH      N/A         42  19  39  CALM    30.12R
#WAPATO 4NE     N/A         38   5  25  CALM    29.05R
#WEST VALLEY    N/A         36  23  59  CALM    30.20R
#W YAKIMA       N/A         39  23  52  NW3     30.23R
#WHITE SWAN 5E  N/A         35  23  61  NW2     30.22R
#WILEY CITY 3W  N/A         36  15  42  CALM    30.18R
$$

WAZ028-010510-
LOWER COLUMBIA BASIN...WASHINGTON

CITY            SKY/WX      TMP DP  RH  WIND    PRES   REMARKS
PASCO           CLEAR       34  14  43  CALM    30.21R
PROSSER AWOS    N/A         36  19  50  N2      30.24R
#BASIN CITY 5SW N/A         36  16  44  NE2     30.20R
#BENTON CITY    N/A         38  15  38  W1      30.12R
#CONNELL 5N     N/A         33  12  41  N3      30.22R
#CONNELL 5NW    N/A         33  15  47  E2      30.17R
#ELTOPIA        N/A         36  14  40  CALM    30.18R
#ELTOPIA 6NW    N/A         40  12  31  N2      29.15R
#KAHLOTUS       N/A         38  11  32  SE6     30.21R
#KENNEWICK 3S   N/A         39  11  31  CALM    30.22R
#PASCO-BROADMOORN/A         39   3  22  CALM    30.12R
#PATERSON       N/A         42  11  28  N5      30.19R
#PROSSER        N/A         40  13  33  SE2     30.21S
#SAGEMOOR 2W    N/A         41  12  30  CALM    30.06R
#TOUCHET 2S     N/A         34  17  49  CALM    30.20R
#WEST PASCO     N/A         37  11  34  CALM    30.17R
$$

WAZ029-010510-
FOOTHILLS OF THE BLUES...WASHINGTON

CITY            SKY/WX      TMP DP  RH  WIND    PRES   REMARKS
WALLA WALLA AP  CLEAR       35  22  59  E8      30.17R
#DAYTON SCHOOL  N/A         31  11  43  N2      30.18R
#LOWDEN 2SE     N/A         36  20  52  SE1     30.16R
#PLEASANT VIEW 1N/A         36  11  35  CALM    30.26R
#PRESCOTT       N/A         34  18  51  CALM    30.19R
#SUDBURY        N/A         29  N/A N/A CALM    N/A
#WHITMAN COLLEGEN/A         39  22  50  CALM    30.25R
#WAITSBURG 5S   N/A         35  17  47  E7      30.30R
#WAITSBURG 8N   N/A         30  -3  23  N3      30.03R
#WALLA WALLA 5E N/A         34  22  61  N1      N/A
#WHITMAN MISSIONN/A         35  21  56  CALM    30.22R
$$

WAZ030-010510-
BLUE MOUNTAINS...WASHINGTON

CITY            SKY/WX      TMP DP  RH  WIND    PRES   REMARKS
#DIXIE 5SE      N/A         32  12  43  NE5     30.05R
#SKI BLUEWOOD   N/A         20  15  81  CALM    30.06R
$$

ORZ009-041-WAZ024-010510-
COLUMBIA RIVER GORGE

CITY            SKY/WX      TMP DP  RH  WIND    PRES   REMARKS
HOOD RIVER AP   CLEAR       37  28  70  S6      30.21R
THE DALLES AP   CLEAR       38  24  57  E3      30.22R
#ARLINGTON AIRPON/A         41  17  37  W2      30.01S
#ARLINGTON HS   N/A         36  18  47  W1      30.16R
#CELILO DOT     N/A         43  16  33  SW1     N/A
#MOSIER 1S      N/A         36  14  40  CALM    30.18S
#MURDOCK        N/A         43  27  53  CALM    30.25R
#RUFUS DOT      N/A         42  17  36  S6      N/A

$$

ORZ510-010510-
NORTH CENTRAL OREGON

CITY            SKY/WX      TMP DP  RH  WIND    PRES   REMARKS
#CHENOWITH 1W   N/A         39  17  40  S5      N/A
#COW CYN RST AREN/A         32  12  43  NE2     N/A
#DUFUR 9E       N/A         38  15  38  E9      30.27S
#GRASS VALLEY 1SN/A         29  18  63  CALM    30.29S
#KENT DOT       N/A         32   5  31  CALM    N/A
#MAUPIN SCHOOL  N/A         38  21  50  CALM    30.22R
#MORO SCHOOL    N/A         28  23  81  S5      30.19R
#SHANIKO 5WSW   N/A         29   4  34  NE10    N/A
#SHANIKO 4NW    N/A         30  11  44  NE14    30.11S WCI 19
#TYGH VALLEY 2NEN/A         38  21  50  CALM    30.22R
#WAPANITIA AIRPON/A         31  21  66  NW1     30.24R
#WASCO DOT      N/A         31  20  63  E1      N/A
#WASCO AIRPORT  N/A         34  18  51  SE3     N/A
#WASCO 5NE      N/A         27  20  74  CALM    30.22R
$$

ORZ511-010510-
CENTRAL OREGON

CITY            SKY/WX      TMP DP  RH  WIND    PRES   REMARKS
BEND AIRPORT    PTCLDY      28  16  60  CALM    30.14R
MADRAS AIRPORT  CLEAR       28  18  66  CALM    30.19R
PRINEVILLE AP   CLEAR       28  16  60  VRB6    30.14R
REDMOND AIRPORT CLEAR       29  17  60  CALM    30.15R
#BEND 6E        N/A         30  13  49  CALM    30.26R
#BEND 1SW       N/A         25  19  78  NE1     N/A
#BEND-AWBREY    N/A         27  20  74  CALM    30.27R
#BEND-KIM LN    N/A         29  19  66  CALM    30.10R
#CULVER         N/A         29  18  63  CALM    30.13R
#LAKE BILLY CHINN/A         33   3  27  CALM    30.27R
#POWELL BUTTE 3EN/A         28  15  58  W3      N/A
#POWELL BUTTE   N/A         27  16  63  W1      29.76R
#PRINEVILLE 3N  N/A         26  18  71  N2      30.18R
#WARM SPRINGS   N/A         37  22  54  S3      30.16R

$$


ORZ509-010510-
EAST SLOPES OF OREGON CASCADES

CITY            SKY/WX      TMP DP  RH  WIND    PRES   REMARKS
#BLUE BOX PASS  N/A         28  -20 11  CALM    N/A
#CAMP SHERMAN   N/A         26  18  71  CALM    30.32R
#LA PINE DOT    N/A         27   7  42  N3      N/A
#LA PINE 4NW    N/A         26  15  63  CALM    30.26R
#LAVA BUTTE DOT N/A         22  10  59  CALM    N/A
#MT BACHELOR-MIDN/A         11   7  83  SE40G53 N/A    WCI -13
#SISTERS AIRPOR N/A         26  20  78  CALM    30.17S
#SISTERS ODOT   N/A         26  N/A N/A CALM    N/A
#SISTERS 1NW    N/A         26  17  68  N7      N/A
#SISTERS 3N     N/A         25  10  52  CALM    30.16R
#SUNRIVER       N/A         26  17  68  N1      30.12R
#SUTTLE LK DOT  N/A         21  17  84  N2      N/A
#TUMALO 3W      N/A         30  17  58  NW1     30.15R
#WANOGA BUTTE D N/A         19  10  67  NE14    N/A    WCI  5

$$

ORZ044-010510-
LOWER COLUMBIA BASIN...OREGON

CITY            SKY/WX      TMP DP  RH  WIND    PRES   REMARKS
HERMISTON       CLEAR       30  14  51  S6      30.19R
#BOARDMAN 8SW   N/A         39  13  34  N5      30.22R
#ECHO 8SW       N/A         31  21  66  S1      30.17R
#IONE SCHOOL    N/A         32  21  63  CALM    30.19R
#IRRIGON 4NW    N/A         39  17  40  N3      N/A
#UMATILLA SCHOOLN/A         33  21  61  CALM    30.24R
#UMATILLA       N/A         37  13  37  CALM    30.18R
$$

ORZ507-010510-
NORTHERN FOOTHILLS OF THE BLUES

CITY            SKY/WX      TMP DP  RH  WIND    PRES   REMARKS
PENDLETON AIRPT CLEAR       32  17  53  N5      30.17R
#ADAMS 3WNW     N/A         28  23  81  N3      30.21R
#ATHENA         N/A         29  21  72  CALM    30.24R
#CAYUSE         N/A         34  21  58  CALM    30.21R
#HELIX SCHOOL   N/A         30  18  60  N1      30.22R
#HELIX 3N       N/A         29  15  55  CALM    30.11R
#HOLDMAN 6E     N/A         31  14  49  CALM    30.02R
#M-F FERNDALE   N/A         34  19  54  CALM    30.16R
#M-F GROVE ELEM N/A         34  20  56  CALM    30.16R
#M-FREEWATER 5SEN/A         32  22  66  CALM    30.17R
#PENDLETON DNTN N/A         36  12  36  CALM    30.19R
#PDT AQUATIC CTRN/A         35  15  43  CALM    30.19R
#PENDLETON 5NE  N/A         32  20  61  CALM    30.14R
#PDT SUNRIDGE   N/A         31  20  63  CALM    30.19R
#PENDLETON 7NW  N/A         28  19  68  CALM    28.91S
#PILOT ROCK     N/A         32  18  56  SE6     30.19R
#TUTUILLA       N/A         25  21  84  CALM    30.19R
#UMAPINE 2E     N/A         31  22  69  CALM    30.16R
#WESTON SCHOOL  N/A         31  18  58  SW1     30.14R

$$

ORZ508-010510-
SOUTHERN FOOTHILLS OF THE BLUES

CITY            SKY/WX      TMP DP  RH  WIND    PRES   REMARKS
LEXINGTON       CLEAR       32  21  63  E10     30.20R
#AJAX           N/A         34  13  41  NE5     30.09R
#CONDON SCHOOL  N/A         32  17  53  CALM    30.09S
#CONDON 5W      N/A         30   7  37  CALM    30.10R
#FOSSIL SCHOOL  N/A         29  18  63  NE1     30.12R
#HEPPNER EOC    N/A         31  20  63  SE8     30.19R
#HEPPNER 4NE    N/A         25  15  65  E3      30.25R
#LEXINGTON 2SE  N/A         34  21  58  E1      30.17R
#MIKKALO        N/A         31  18  58  E3      30.17R
#OLEX 4N        N/A         37  19  48  S1      30.17R
#RUGGS 5NE      N/A         28  13  53  E1      30.30R
#RUGGS 2SW      N/A         28  17  63  SW7     30.27R

$$

ORZ502-503-010510-
BLUE MOUNTAINS

CITY            SKY/WX      TMP DP  RH  WIND    PRES   REMARKS
MEACHAM         CLEAR       26  18  71  CALM    30.11R
#BATTLE MTN DOT N/A         21  17  84  N2      N/A
#HARDMAN 10S    N/A         20  16  84  CALM    30.40R
#HEPPNER 15SE   N/A         18  16  92  CALM    30.03R
#LADD CYN SMT   N/A         31  10  41  W8      N/A
#LADD CREEK ODOTN/A         33  15  47  W3      N/A
#LONG CREEK HS  N/A         20  19  96  CALM    30.07R
#N POWDER DOT   N/A         32  16  51  W9      N/A
#PIKES PEAK     N/A         32  12  43  NE3     27.99S
#TOLLGATE       N/A         20  16  84  CALM    30.01R
#TROY SCHOOL    N/A         34  23  64  CALM    30.04R
#UKIAH          N/A         23  18  81  CALM    30.28R
#WESTON 4E      N/A         31  15  51  CALM    30.17R
$$

ORZ505-010510-
JOHN DAY BASIN

CITY            SKY/WX      TMP DP  RH  WIND    PRES   REMARKS
JOHN DAY        CLEAR       29  18  63  NW3     30.12R
#JOHN DAY KJDY  N/A         30  28  92  E1      30.20R
#MITCHELL       N/A         26  22  85  CALM    30.27R
#MONUMENT HS    N/A         30  19  63  CALM    30.16R
#MT. VERNON 5SE N/A         26  19  74  CALM    30.05R
#SPRAY SCHOOL   N/A         30  N/A N/A CALM    N/A
#WINLOCK        N/A         28  13  53  CALM    30.20R
$$

ORZ506-010510-
OCHOCO AND JOHN DAY HIGHLANDS

CITY            SKY/WX      TMP DP  RH  WIND    PRES   REMARKS
#BUCK CREEK DOT N/A         27  27  100 SW6     N/A
#HORSE RIDGE DO N/A         21   9  59  NW1     N/A
#KEYES SMT DOT  N/A         25  15  65  CALM    N/A
#PAULINA SCHOOL N/A         27  16  63  CALM    30.06R
#PINE MTN OBS   N/A         16  14  92  NW8     N/A
#PRAIRIE CITY   N/A         22  13  68  S2      30.34R
#SENECA 9NW     N/A         21  17  84  CALM    30.15R
$$

ORZ049-010510-
GRANDE RONDE VALLEY

CITY            SKY/WX      TMP DP  RH  WIND    PRES   REMARKS
LA GRANDE       CLEAR       34  12  40  NW10    30.11R
#COVE           N/A         29  23  78  CALM    30.11R
#COVE SCHOOL    N/A         27  21  78  CALM    30.07R
#ELGIN 3N       N/A         27  11  50  CALM    30.10R
#ELGIN 1E       N/A         33  20  58  CALM    N/A
#IMBLER SCHOOL  N/A         33  18  53  N6      30.08R
#ISLAND CITY 4N N/A         41  36  82  CALM    30.18R
#LADD CYN DOT   N/A         36  15  42  W8      N/A
#UNION 1S       N/A         32  20  61  N2      30.10R
$$

ORZ050-010510-
WALLOWA COUNTY

CITY            SKY/WX      TMP DP  RH  WIND    PRES   REMARKS
JOSEPH AIRPORT  CLEAR       27  18  68  W3      30.09
#ENTERPRISE HS  N/A         30  19  63  CALM    30.09R
#IMNAHA SCHOOL  N/A         33  25  72  CALM    30.11R
#IMNAHA 10S     N/A         32  20  61  SW1     30.08R
#JOSEPH 3N      N/A         27  19  71  CALM    30.09R
#JOSEPH 3W      N/A         25  11  55  SW1     29.91R
#LOSTINE        N/A         27  18  68  CALM    29.99R
#MT HOWARD 8000 N/A         11   8  87  N1      29.88S
#PROMISE 1S     N/A         27  18  68  CALM    30.32R
#SHEEP RDG 7000 N/A         15  11  84  CALM    30.22R
#WALLOWA SCHOOL N/A         28  18  66  CALM    31.17R



$$



USA.gov is the U.S. government's official web portal to all federal, state and local government web resources and services.